Atlantic, IA

4:14 PM CST on February 07, 2016 (GMT -0600)
Atlantic Municipal

Weather History for KAIO - October, 2012

Change the Weather History Date:

Monday, October 1, 2012

  Actual Average Record
Temperature  
Mean Temperature 62 °F -  
Max Temperature 77 °F 68 °F 138 °F (1997)
Min Temperature 46 °F 44 °F 30 °F (2003)
Degree Days  
Heating Degree Days 4    
Growing Degree Days 12 (Base 50)    
Moisture  
Dew Point 43 °F    
Average Humidity 56    
Maximum Humidity 93    
Minimum Humidity 22    
Precipitation  
Precipitation 0.00 in - - ()
Sea Level Pressure  
Sea Level Pressure 29.91 in    
Wind  
Wind Speed 7 mph (North)    
Max Wind Speed 28 mph    
Max Gust Speed 34 mph    
Visibility 9 miles    
Events      
Averages and records for this station are not official NWS values.
T = Trace of Precipitation, MM = Missing Value Source: NWS Daily Summary

Daily Weather History Graph

Daily Weather History Graph

Search for Another Location

Airport or City:

Trip Planner

Search our weather history database for the weather conditions in past years. The results will help you decide how hot, cold, wet, or windy it might be!

Date:

Astronomy

Oct. 01, 2012 Rise Set
Actual Time 7:17 AM CDT 7:01 PM CDT
Civil Twilight 6:49 AM CDT 7:28 PM CDT
Nautical Twilight 6:17 AM CDT 8:00 PM CDT
Astronomical Twilight 5:45 AM CDT 8:33 PM CDT
Moon 7:36 PM CDT (10/1) 8:49 AM CDT (10/1)
Length of Visible Light 12h 38m
Length of Day
11h 43m
Full, 98% of the Moon is Illuminated
Oct 1
Full
Oct 8
Last Quarter
Oct 15
New
Oct 21
First Quarter
Oct 29
Full

Hourly Weather History & Observations

Time (CDT) Temp. Windchill Dew Point Humidity Pressure Visibility Wind Dir Wind Speed Gust Speed Precip Events Conditions
12:15 AM 55.4 °F - 46.4 °F 72% 29.91 in 10.0 mi NW 3.5 mph - N/A   Overcast
12:35 AM 57.2 °F - 48.2 °F 72% 29.91 in 10.0 mi Calm Calm 12.7 mph N/A   Mostly Cloudy
12:55 AM 55.4 °F - 46.4 °F 72% 29.91 in 10.0 mi North 4.6 mph - N/A   Mostly Cloudy
1:15 AM 55.4 °F - 46.4 °F 72% 29.90 in 10.0 mi Calm Calm - N/A   Scattered Clouds
1:35 AM 53.6 °F - 46.4 °F 77% 29.90 in 10.0 mi North 4.6 mph - N/A   Partly Cloudy
1:55 AM 53.6 °F - 44.6 °F 72% 29.90 in 10.0 mi North 4.6 mph - N/A   Partly Cloudy
2:15 AM 51.8 °F - 44.6 °F 76% 29.90 in 10.0 mi Calm Calm - N/A   Partly Cloudy
2:35 AM 50.0 °F - 44.6 °F 82% 29.89 in 10.0 mi North 4.6 mph - N/A   Partly Cloudy
2:55 AM 50.0 °F - 44.6 °F 82% 29.89 in 10.0 mi North 4.6 mph - N/A   Partly Cloudy
3:35 AM 48.2 °F - 42.8 °F 82% 29.89 in 10.0 mi Calm Calm - N/A   Partly Cloudy
3:55 AM 46.4 °F - 42.8 °F 87% 29.89 in 10.0 mi Calm Calm - N/A   Clear
4:15 AM 48.2 °F - 42.8 °F 82% 29.89 in 10.0 mi North 4.6 mph - N/A   Clear
4:35 AM 48.2 °F - 44.6 °F 87% 29.89 in 10.0 mi Calm Calm - N/A   Partly Cloudy
4:55 AM 48.2 °F - 44.6 °F 87% 29.89 in 10.0 mi Calm Calm - N/A   Clear
5:15 AM 48.2 °F - 42.8 °F 82% 29.89 in 10.0 mi Calm Calm - N/A   Partly Cloudy
5:35 AM 48.2 °F - 42.8 °F 82% 29.89 in 10.0 mi Calm Calm - N/A   Partly Cloudy
6:15 AM 48.2 °F - 42.8 °F 82% 29.89 in 10.0 mi Calm Calm - N/A   Clear
6:35 AM 46.4 °F - 42.8 °F 87% 29.89 in 10.0 mi Calm Calm - N/A   Clear
6:55 AM 46.4 °F - 42.8 °F 87% 29.89 in 10.0 mi Calm Calm - N/A   Partly Cloudy
7:15 AM 48.2 °F - 44.6 °F 87% 29.89 in 9.0 mi Calm Calm - N/A   Clear
7:35 AM 46.4 °F 45.2 °F 42.8 °F 87% 29.90 in 10.0 mi North 3.5 mph - N/A   Clear
8:15 AM 46.4 °F - 44.6 °F 93% 29.90 in 9.0 mi Calm Calm - N/A   Clear
8:35 AM 50.0 °F - 44.6 °F 82% 29.91 in 10.0 mi Calm Calm - N/A   Clear
8:55 AM 53.6 °F - 46.4 °F 77% 29.91 in 9.0 mi North 4.6 mph - N/A   Clear
9:15 AM 59.0 °F - 46.4 °F 63% 29.91 in 10.0 mi NNE 6.9 mph - N/A   Clear
9:35 AM 62.6 °F - 46.4 °F 55% 29.92 in 10.0 mi NNE 11.5 mph - N/A   Clear
9:55 AM 66.2 °F - 48.2 °F 52% 29.92 in 10.0 mi NE 17.3 mph 24.2 mph N/A   Clear
10:15 AM 66.2 °F - 48.2 °F 52% 29.92 in 9.0 mi NNE 11.5 mph 21.9 mph N/A   Clear
10:35 AM 66.2 °F - 48.2 °F 52% 29.92 in 10.0 mi NNE 11.5 mph 20.7 mph N/A   Clear
10:55 AM 69.8 °F - 48.2 °F 46% 29.93 in 9.0 mi NNE 13.8 mph 23.0 mph N/A   Clear
11:15 AM 71.6 °F - 50.0 °F 46% 29.93 in 10.0 mi North 11.5 mph 21.9 mph N/A   Clear
11:35 AM 71.6 °F - 50.0 °F 46% 29.92 in 10.0 mi North 15.0 mph 23.0 mph N/A   Clear
12:15 PM 73.4 °F - 50.0 °F 44% 29.92 in 10.0 mi North 19.6 mph 25.3 mph N/A   Clear
12:35 PM 73.4 °F - 48.2 °F 41% 29.92 in 9.0 mi NNE 19.6 mph 26.5 mph N/A   Clear
12:55 PM 73.4 °F - 48.2 °F 41% 29.92 in 10.0 mi North 20.7 mph 27.6 mph N/A   Clear
1:15 PM 75.2 °F - 48.2 °F 38% 29.91 in 9.0 mi North 20.7 mph 27.6 mph N/A   Clear
1:35 PM 75.2 °F - 48.2 °F 38% 29.90 in 3.0 mi North 20.7 mph 31.1 mph N/A   Haze
1:55 PM 75.2 °F - 48.2 °F 38% 29.90 in 3.0 mi North 17.3 mph 28.8 mph N/A   Haze
2:15 PM 75.2 °F - 46.4 °F 36% 29.89 in 2.0 mi North 19.6 mph 28.8 mph N/A   Haze
2:35 PM 75.2 °F - 46.4 °F 36% 29.89 in 1.0 mi North 20.7 mph 28.8 mph N/A   Haze
2:55 PM 77.0 °F - 44.6 °F 32% 29.89 in 2.0 mi North 19.6 mph 29.9 mph N/A   Haze
3:15 PM 75.2 °F - 35.6 °F 24% 29.90 in 2.5 mi North 20.7 mph 32.2 mph N/A   Haze
3:35 PM 75.2 °F - 33.8 °F 22% 29.90 in 2.0 mi North 27.6 mph 34.5 mph N/A   Haze
3:55 PM 75.2 °F - 35.6 °F 24% 29.90 in 4.0 mi North 21.9 mph 32.2 mph N/A   Haze
4:15 PM 73.4 °F - 37.4 °F 27% 29.90 in 1.2 mi North 23.0 mph 32.2 mph N/A   Haze
4:35 PM 73.4 °F - 39.2 °F 29% 29.90 in 10.0 mi North 21.9 mph - N/A   Clear
5:15 PM 73.4 °F - 39.2 °F 29% 29.91 in 10.0 mi North 20.7 mph 29.9 mph N/A   Clear
5:35 PM 71.6 °F - 39.2 °F 31% 29.91 in 10.0 mi North 17.3 mph 27.6 mph N/A   Clear
5:55 PM 71.6 °F - 39.2 °F 31% 29.92 in 10.0 mi North 20.7 mph 26.5 mph N/A   Clear
6:15 PM 69.8 °F - 39.2 °F 33% 29.92 in 10.0 mi North 18.4 mph - N/A   Clear
6:35 PM 69.8 °F - 39.2 °F 33% 29.92 in 10.0 mi North 15.0 mph - N/A   Clear
6:55 PM 68.0 °F - 39.2 °F 35% 29.92 in 10.0 mi North 9.2 mph - N/A   Clear
7:15 PM 66.2 °F - 39.2 °F 37% 29.93 in 10.0 mi North 10.4 mph - N/A   Clear
7:35 PM 64.4 °F - 39.2 °F 40% 29.93 in 10.0 mi North 9.2 mph - N/A   Partly Cloudy
7:55 PM 64.4 °F - 39.2 °F 40% 29.93 in 10.0 mi North 10.4 mph - N/A   Partly Cloudy
8:15 PM 62.6 °F - 39.2 °F 42% 29.94 in 10.0 mi North 6.9 mph 13.8 mph N/A   Scattered Clouds
8:35 PM 60.8 °F - 39.2 °F 45% 29.95 in 10.0 mi North 8.1 mph - N/A   Partly Cloudy
8:55 PM 59.0 °F - 39.2 °F 48% 29.95 in 10.0 mi North 8.1 mph - N/A   Clear
9:15 PM 59.0 °F - 39.2 °F 48% 29.95 in 10.0 mi North 8.1 mph - N/A   Clear
9:35 PM 57.2 °F - 39.2 °F 51% 29.95 in 10.0 mi North 6.9 mph - N/A   Partly Cloudy
9:55 PM 57.2 °F - 39.2 °F 51% 29.96 in 10.0 mi North 9.2 mph - N/A   Clear
10:15 PM 55.4 °F - 39.2 °F 54% 29.96 in 10.0 mi North 8.1 mph - N/A   Clear
10:35 PM 55.4 °F - 39.2 °F 54% 29.96 in 10.0 mi North 10.4 mph - N/A   Partly Cloudy
10:55 PM 53.6 °F - 37.4 °F 54% 29.96 in 10.0 mi North 10.4 mph - N/A   Partly Cloudy
11:15 PM 53.6 °F - 37.4 °F 54% 29.96 in 10.0 mi North 10.4 mph - N/A   Partly Cloudy
11:35 PM 53.6 °F - 37.4 °F 54% 29.96 in 10.0 mi North 11.5 mph - N/A   Clear
11:55 PM 51.8 °F - 35.6 °F 54% 29.96 in 10.0 mi NNW 11.5 mph - N/A   Clear